Regional Weather Roundup
Issued by NWS

Home | Current Version | Previous Version | Graphics & Text | Print | Product List | Glossary Off
Versions: 1 2 3 4 5 6 7 8 9 10 11 12 13 14 15 16 17 18 19 20 21 22 23 24 25 26 27 28 29 30 31 32 33 34 35 36 37 38 39 40 41 42 43 44 45 46 47 48 49 50

000
ASUS43 KTOP 251159
RWRKS

WEATHER ROUNDUP FOR KANSAS
NATIONAL WEATHER SERVICE GOODLAND KS
600 AM CST SUN FEB 25 2018

NOTE:  "FAIR" INDICATES FEW OR NO CLOUDS BELOW 12,000 FEET WITH NO
SIGNIFICANT WEATHER AND/OR OBSTRUCTIONS TO VISIBILITY.

KSZ001>006-013>018-027>032-041>047-251300-
NORTHWEST KANSAS

CITY           SKY/WX    TMP DP  RH WIND       PRES   REMARKS
GOODLAND       PTCLDY    21  10  62 SW10      29.88R WCI  10
6HR MIN TEMP:  17; 6HR MAX TEMP:  23;

HAYS           CLOUDY    19  13  77 W5        29.96S
HILL CITY      CLOUDY    17  12  80 SW6       29.95R
6HR MIN TEMP:  15; 6HR MAX TEMP:  20;

RUSSELL        CLOUDY    19  13  77 W6        29.94F
6HR MIN TEMP:  19; 6HR MAX TEMP:  23;

$$

KSZ061>065-074>080-084>089-251300-
SOUTHWEST KANSAS

CITY           SKY/WX    TMP DP  RH WIND       PRES   REMARKS
DODGE CITY     CLOUDY    22   9  57 E6        29.95R
6HR MIN TEMP:  17; 6HR MAX TEMP:  29;

GARDEN CITY    CLOUDY    17   6  62 CALM      29.94R
6HR MIN TEMP:  17; 6HR MAX TEMP:  23;

GREAT BEND     CLEAR     13   9  84 NW5       29.97R
LIBERAL        CLEAR     23  12  62 NE5       29.94R
$$

KSZ066>073-081>083-090>101-251300-
SOUTHEAST KANSAS

CITY           SKY/WX    TMP DP  RH WIND       PRES   REMARKS
CHANUTE        CLEAR     25  21  85 CALM      30.02R
6HR MIN TEMP:  23; 6HR MAX TEMP:  33;

COFFEYVILLE    FOG       26  26 100 CALM      30.04R VSB 1/4
6HR MIN TEMP:  26; 6HR MAX TEMP:  33;

HUTCHINSON     CLEAR     14  13  95 CALM      29.98R
6HR MIN TEMP:  14; 6HR MAX TEMP:  26;

MEDICINE LODGE   N/A     23  17  78 CALM      30.00R
NEWTON         CLEAR     24  19  81 NE3       29.99R
PARSONS        CLOUDY    24  23  96 CALM      30.04R FOG
6HR MIN TEMP:  23; 6HR MAX TEMP:  31;

WICHITA INTL   CLEAR     21  19  92 CALM      30.00R
6HR MIN TEMP:  21; 6HR MAX TEMP:  31;

WICHITA JABRA  CLEAR     23  20  88 S5        29.99R
6HR MIN TEMP:  22; 6HR MAX TEMP:  32;

WICHITA MCCONL CLEAR     25  20  81 SE5       29.99R
WINFIELD       CLEAR     22  22 100 CALM      30.02R
6HR MIN TEMP:  22; 6HR MAX TEMP:  32;

$$

KSZ007>012-019>026-033>040-048>060-102>105-251300-
NORTHEAST KANSAS

CITY           SKY/WX    TMP DP  RH WIND       PRES   REMARKS
CONCORDIA      CLEAR     24  17  74 SW8       29.94F
6HR MIN TEMP:  23; 6HR MAX TEMP:  26;

EMPORIA        CLEAR     26  17  68 W3        29.99S
6HR MIN TEMP:  24; 6HR MAX TEMP:  32;

LAWRENCE       CLEAR     20  19  96 CALM      29.99S
6HR MIN TEMP:  20; 6HR MAX TEMP:  33;

MANHATTAN      CLEAR     19  16  88 CALM      29.98S
6HR MIN TEMP:  18; 6HR MAX TEMP:  33;

OLATHE IND     CLEAR     26  21  81 CALM      29.99S
6HR MIN TEMP:  21; 6HR MAX TEMP:  31;

OLATHE EXE     CLEAR     24  22  91 CALM      29.98S
6HR MIN TEMP:  24; 6HR MAX TEMP:  31;

SALINA         CLEAR     23  17  78 CALM      29.98S
6HR MIN TEMP:  22; 6HR MAX TEMP:  31;

TOPEKA BILLARD CLEAR     23  22  96 CALM      29.99S
6HR MIN TEMP:  22; 6HR MAX TEMP:  33;

TOPEKA FORBES  CLEAR     25  19  78 CALM      29.98S
6HR MIN TEMP:  23; 6HR MAX TEMP:  31;

$$




USA.gov is the U.S. government's official web portal to all federal, state and local government web resources and services.